Weather History for Lawrence, MA

Change the Weather History Date:

Saturday, February 16, 2013

  Actual Average Record
Temperature  
Mean Temperature 36 °F -  
Max Temperature 39 °F 37 °F 59 °F (2006)
Min Temperature 30 °F 17 °F -25 °F (1943)
Degree Days  
Heating Degree Days 30    
Moisture  
Dew Point 25 °F    
Average Humidity 69    
Maximum Humidity 89    
Minimum Humidity 48    
Precipitation  
Precipitation 0.00 in - - ()
Sea Level Pressure  
Sea Level Pressure 29.90 in    
Wind  
Wind Speed 4 mph (NNW)    
Max Wind Speed 12 mph    
Max Gust Speed -    
Visibility 7 miles    
Events Snow    
Averages and records for this station are not official NWS values.
T = Trace of Precipitation, MM = Missing Value Source: NWS Daily Summary

Daily Weather History Graph

Daily Weather History Graph

Search for Another Location

Airport:

Trip Planner

Search our weather history database for the weather conditions in past years. The results will help you decide how hot, cold, wet, or windy it might be!

Date:

Astronomy

Feb. 16, 2013 Rise Set
Actual Time 6:39 AM EST 5:17 PM EST
Civil Twilight 6:10 AM EST 5:46 PM EST
Nautical Twilight 5:37 AM EST 6:19 PM EST
Astronomical Twilight 5:05 AM EST 6:52 PM EST
Moon 9:40 AM EST (2/16) No Moon Set
Length of Visible Light 11h 35m
Length of Day
10h 38m
Waxing Crescent, 39% of the Moon is Illuminated
Feb 16
Waxing Crescent
Feb 17
First Quarter
Feb 25
Full
Mar 4
Last Quarter
Mar 11
New

Hourly Weather History & Observations

Time (EST) Temp. Windchill Dew Point Humidity Pressure Visibility Wind Dir Wind Speed Gust Speed Precip Events Conditions
12:54 AM 33.1 °F - 27.0 °F 78% 29.96 in 9.0 mi Calm Calm - N/A   Overcast
1:54 AM 33.1 °F - 28.0 °F 82% 29.95 in 7.0 mi Calm Calm - N/A   Overcast
2:54 AM 34.0 °F - 28.9 °F 82% 29.95 in 8.0 mi Calm Calm - N/A   Overcast
3:54 AM 36.0 °F 30.3 °F 25.0 °F 64% 29.95 in 10.0 mi NW 6.9 mph - N/A   Overcast
4:54 AM 35.1 °F 29.3 °F 28.0 °F 76% 29.96 in 10.0 mi NNW 6.9 mph - N/A   Overcast
5:54 AM 33.8 °F 28.6 °F 28.4 °F 81% 29.95 in 5.0 mi NNW 5.8 mph - N/A Snow Light Snow
6:16 AM 33.8 °F 29.6 °F 28.4 °F 81% 29.95 in 5.0 mi NNW 4.6 mph - 0.00 in Snow Light Snow
6:54 AM 33.8 °F 28.6 °F 28.4 °F 81% 29.95 in 6.0 mi NNW 5.8 mph - N/A Snow Light Snow
7:07 AM 33.8 °F 28.6 °F 28.4 °F 81% 29.94 in 2.5 mi NNW 5.8 mph - 0.00 in Snow Light Snow
7:40 AM 33.8 °F 29.6 °F 30.2 °F 87% 29.95 in 2.0 mi NNW 4.6 mph - 0.00 in Snow Light Snow
7:54 AM 33.1 °F 28.7 °F 30.0 °F 89% 29.96 in 2.0 mi North 4.6 mph - 0.00 in Snow Light Snow
7:58 AM 33.8 °F 28.6 °F 28.4 °F 81% 29.95 in 1.8 mi NNW 5.8 mph - 0.00 in Snow Light Snow
8:54 AM 33.1 °F 30.0 °F 30.0 °F 89% 29.97 in 2.0 mi NW 3.5 mph - 0.00 in Snow Light Snow
9:01 AM 33.8 °F 30.8 °F 30.2 °F 87% 29.96 in 1.8 mi NW 3.5 mph - 0.00 in Snow Light Snow
9:08 AM 33.8 °F - 30.2 °F 87% 29.95 in 3.0 mi Calm Calm - 0.00 in Snow Light Snow
9:31 AM 33.8 °F 30.8 °F 28.4 °F 81% 29.95 in 4.0 mi NNW 3.5 mph - 0.00 in Snow Light Snow
9:54 AM 35.1 °F 30.1 °F 28.0 °F 76% 29.94 in 10.0 mi North 5.8 mph - 0.00 in   Overcast
10:54 AM 36.0 °F 31.1 °F 27.0 °F 70% 29.94 in 10.0 mi North 5.8 mph - N/A   Overcast
11:54 AM 37.0 °F 31.0 °F 26.1 °F 65% 29.92 in 10.0 mi North 8.1 mph - N/A   Overcast
12:54 PM 37.9 °F 33.5 °F 25.0 °F 60% 29.90 in 10.0 mi NW 5.8 mph - N/A   Overcast
1:54 PM 39.0 °F 34.8 °F 24.1 °F 55% 29.88 in 10.0 mi NNW 5.8 mph - N/A   Overcast
2:54 PM 39.0 °F 33.4 °F 23.0 °F 53% 29.87 in 10.0 mi NNW 8.1 mph - N/A   Overcast
3:54 PM 39.0 °F 33.4 °F 23.0 °F 53% 29.85 in 10.0 mi North 8.1 mph - N/A   Overcast
4:54 PM 37.9 °F 32.7 °F 21.9 °F 53% 29.83 in 10.0 mi North 6.9 mph - N/A   Mostly Cloudy
5:54 PM 37.9 °F 33.5 °F 19.9 °F 48% 29.85 in 10.0 mi North 5.8 mph - N/A   Overcast
6:54 PM 36.0 °F 28.0 °F 19.0 °F 50% 29.84 in 10.0 mi North 11.5 mph - N/A   Overcast
7:54 PM 35.1 °F 28.6 °F 17.1 °F 48% 29.83 in 10.0 mi North 8.1 mph - N/A   Overcast
8:54 PM 34.0 °F 28.0 °F 16.0 °F 48% 29.82 in 10.0 mi North 6.9 mph - N/A   Overcast
9:54 PM 33.1 °F 26.9 °F 15.1 °F 48% 29.80 in 10.0 mi NNW 6.9 mph - N/A   Overcast
10:54 PM 32.0 °F 23.6 °F 15.1 °F 50% 29.78 in 10.0 mi North 10.4 mph - N/A   Overcast
11:54 PM 30.9 °F 22.8 °F 14.0 °F 50% 29.74 in 10.0 mi NNW 9.2 mph - N/A   Overcast